Regional Weather Roundup
Issued by NWS

Home | Current Version | Previous Version | Graphics & Text | Print | Product List | Glossary On
Versions: 1 2 3 4 5 6 7 8 9 10 11 12 13 14 15 16 17 18 19 20 21 22 23 24 25 26 27 28 29 30 31 32 33 34 35 36 37 38 39 40 41 42 43 44 45 46 47 48 49 50
000
ASUS43 KMPX 191901
RWRMN
WEATHER ROUNDUP FOR MINNESOTA
NATIONAL WEATHER SERVICE TWIN CITIES/CHANHASSEN MN
100 PM CST SUN FEB 19 2017


NOTE: "FAIR" INDICATES FEW OR NO CLOUDS BELOW 12,000 FEET WITH NO
SIGNIFICANT WEATHER AND/OR OBSTRUCTIONS TO VISIBILITY. N/A MEANS
CURRENT SKY AND/OR WEATHER CONDITIONS ARE NOT AVAILABLE.

MNZ060>063-068>070-192000-
   Twin Cities Metro

CITY           SKY/WX    TMP DP  RH WIND       PRES   REMARKS
TWIN CITIES    PTSUNNY   57  39  51 SE12      29.91F
ST PAUL        SUNNY     55  41  59 SE10      29.93F
CRYSTAL        SUNNY     58  36  43 SE10      29.90F
BLAINE         MOSUNNY   59  37  44 SE13      29.92S
LAKEVILLE      CLOUDY    54  45  71 SE12      29.90F
EDEN PRAIRIE   SUNNY     59  40  49 SE12      29.88F
SOUTH ST PAUL  SUNNY     56  40  55 S7        29.92S
LAKE ELMO      FAIR      55  41  58 SE8       29.93F
$$
MNZ001>005-007-008-013>017-022>024-027-028-192000-
   Northwest Minnesota

CITY           SKY/WX    TMP DP  RH WIND       PRES   REMARKS
BEMIDJI        LGT RAIN  40  32  71 SE10      29.82F
HALLOCK        CLOUDY    39  34  81 E14       29.74F
ROSEAU         MOSUNNY   39  32  75 E12       29.80F
WARROAD        PTSUNNY   37  34  87 NE10      29.84F
THIEF RVR FALL CLOUDY    41  33  73 SE17      29.76F
CROOKSTON      CLOUDY    43  37  81 SE17      29.73F
FOSSTON        CLOUDY    43  34  70 SE13G21   29.77F
DETROIT LAKES  MOSUNNY   45  37  76 SE17G23   29.76F
MOORHEAD       SUNNY     54  43  66 SE17G24   29.69F
PARK RAPIDS    CLOUDY    47  35  63 SE12      29.82F
MAHNOMEN       FAIR      45  37  72 SE15G22   29.74F
$$
MNZ006-009>011-018-025>026-192000-
   North Central Minnesota

CITY           SKY/WX    TMP DP  RH WIND       PRES   REMARKS
BAUDETTE       CLOUDY    40  30  67 E7        29.85F
FLAG ISLAND    PTSUNNY   39  28  65 E7        29.86F
INTL FALLS     CLOUDY    42  30  62 E9        29.90F
WASKISH        CLOUDY    46  30  53 SE8       29.85F
BIG FORK       CLOUDY    46  30  53 SE5       29.89F
LONGVILLE      PTSUNNY   48  32  53 SE3       29.86F
GRAND RAPIDS   CLOUDY    50  31  48 SE10      29.90F
CRANE LAKE     CLOUDY    46  28  49 E3        29.94F
ORR            CLOUDY    48  27  43 CALM      29.89F
COOK           CLOUDY    50  27  40 S8        29.92F
WALKER         MOCLDY    45  33  63 SE7       29.84F
$$
MNZ012-019>021-037-192000-
   Northeast Minnesota

CITY           SKY/WX    TMP DP  RH WIND       PRES   REMARKS
DULUTH         MOSUNNY   42  31  64 E10       29.94F
ELY            CLOUDY    48  28  46 SE6       29.93F
HIBBING        CLOUDY    45  28  51 SE9       29.91F
EVELETH        MOSUNNY   50  23  34 SE8       29.93F
DULUTH HARBOR  CLOUDY    37  34  87 CALM      29.99S
TWO HARBORS    CLOUDY    46  34  61 E7        29.96S
GRAND MARAIS     N/A     39  33  79 E5        30.04S
G MARAIS ARPRT MOSUNNY   39  25  56 SE6       30.00S
$$
MNZ029>031-032-039>041-046>048-054>057-064-192000-
   West Central Minnesota

CITY           SKY/WX    TMP DP  RH WIND       PRES   REMARKS
FERGUS FALLS   MOSUNNY   52  41  66 SE20      29.75F
WHEATON        CLOUDY    52  43  71 SE22      29.71F
MORRIS         MOSUNNY   54  46  76 SE20G28   29.74F
ALEXANDRIA     CLOUDY    51  41  68 SE18G24   29.79F
ELBOW LAKE     FAIR      52  43  70 E17G26    29.73F
WADENA         MOSUNNY   46  39  76 SE14      29.80F
GLENWOOD       CLOUDY    54  43  66 SE17      29.80F
APPLETON       MOSUNNY   55  43  62 SE13      29.74F
BENSON         MOSUNNY   55  41  58 S17G23    29.79F
ORTONVILLE     CLOUDY    54  45  71 SE18      29.71F
WILLMAR        FAIR      55  48  76 SE6G22    29.82F
$$
MNZ033>034-036-042>043-049>051-058-059-192000-
   Central Minnesota

CITY           SKY/WX    TMP DP  RH WIND       PRES   REMARKS
ST CLOUD       CLOUDY    55  42  61 SE10      29.86F
SAUK CENTRE    FAIR      53  42  66 SE10      29.82F
PAYNESVILLE    CLOUDY    53  40  60 SE16      29.83F
AITKIN         CLOUDY    52  30  43 SE7       29.88F
PINE RIVER     CLOUDY    45  36  70 SE8       29.90F
BRAINERD       CLOUDY    47  37  68 SE6       29.87S
STAPLES        CLOUDY    48  37  66 SE7       29.84F
LONG PRAIRIE   FAIR      52  41  66 E10       29.83F
LITTLE FALLS   CLOUDY    52  37  58 SE14      29.86F
LITCHFIELD     CLOUDY    57  45  62 SE15      29.84F
BUFFALO        MOSUNNY   57  38  49 SE12      29.88F
MAPLE LAKE     MOSUNNY   56  42  59 SE7       29.87F
HUTCHINSON     CLOUDY    56  45  66 SE16      29.85F
$$
MNZ037-044-045-052-053-192000-
   East Central Minnesota

CITY           SKY/WX    TMP DP  RH WIND       PRES   REMARKS
PRINCETON      MOSUNNY   59  37  44 SE9       29.90S
MORA           PTSUNNY   52  36  54 SE7       29.93S
CAMBRIDGE      SUNNY     59  39  47 SE6       29.90R
RUSH CITY      MOSUNNY   57  34  41 SE12      29.92S
MOOSE LAKE     MOSUNNY   54  32  43 CALM      29.91F
HINCKLEY       FAIR      55  36  47 SE9       29.91F
CLOQUET        CLOUDY    45  28  53 E6        29.94S
MCGREGOR       PTSUNNY   48  32  53 SE8       29.90F
$$
MNZ071>073-080-081-089-090-097-098-192000-
   Southwest Minnesota

CITY           SKY/WX    TMP DP  RH WIND       PRES   REMARKS
MONTEVIDEO     SUNNY     57  48  72 S13       29.78F
GRANITE FALLS  SUNNY     61  50  66 SE18      29.78F
CANBY          SUNNY     64  48  54 S15       29.74F
MARSHALL       SUNNY     61  49  64 S21       29.76F
REDWOOD FALLS  MOSUNNY   55  45  68 SE16      29.80F
OLIVIA         MOSUNNY   55  46  71 SE18      29.80F
PIPESTONE      MOSUNNY   59  48  67 S18       29.75F
WINDOM         CLOUDY    63  48  59 SE12      29.81F
WORTHINGTON    MOSUNNY   58  51  78 S15       29.81F
JACKSON        SUNNY     57  46  67 SE13      29.83F
TRACY          MOSUNNY   59  50  72 S13       29.78F
SLAYTON        PTSUNNY   59  51  74 S16       29.80F
$$
MNZ065>067-074>077-082>085-091>093-192000-
   South Central Minnesota

CITY           SKY/WX    TMP DP  RH WIND       PRES   REMARKS
MANKATO          N/A     58  43  57 S17G25    29.86F
NEW ULM        MOSUNNY   57  45  62 S16       29.83F
ST JAMES       MOSUNNY   55  48  76 SE12      29.85F
FAIRMONT       CLOUDY    57  48  72 SE15      29.85F
GLENCOE        MOSUNNY   59  46  63 SE14      29.85F
FARIBAULT      SUNNY     57  43  58 SE14      29.91F
OWATONNA       SUNNY     57  43  58 SE14G21   29.90F
WASECA         SUNNY     55  45  67 SE14G22   29.90F
ALBERT LEA     SUNNY     55  45  67 SE13G18   29.90F
$$
MNZ078>079-086>088-094>096-192000-
   Southeast Minnesota

CITY           SKY/WX    TMP DP  RH WIND       PRES   REMARKS
ROCHESTER      MOSUNNY   52  44  74 SE16      29.94F
RED WING       CLOUDY    54  37  54 SE9       29.93F
STANTON        MOSUNNY   58  42  54 SE10      29.91S
DODGE CENTER   MOSUNNY   52  45  76 SE14      29.92F
WINONA         MOSUNNY   54  37  54 SE6       29.97F
AUSTIN         SUNNY     54  45  71 SE9       29.92F
PRESTON        PTSUNNY   53  40  62 SE9       29.95F
$$
ABBREVIATIONS USED IN REMARKS
   TC - TEMPERATURES IN CELSIUS
  WCI - WIND CHILL INDEX
   HX - HEAT INDEX
  VSB - VISIBILITY
$$



USA.gov is the U.S. government's official web portal to all federal, state and local government web resources and services.